Regional Weather Roundup
Issued by NWS

Home | Current Version | Previous Version | Graphics & Text | Print | Product List | Glossary On
Versions: 1 2 3 4 5 6 7 8 9 10 11 12 13 14 15 16 17 18 19 20 21 22 23 24 25 26 27 28 29 30 31 32 33 34 35 36 37 38 39 40 41 42 43 44 45 46 47 48 49 50
000
ASUS45 KCYS 232010
RWRWY

WYOMING REGIONAL WEATHER ROUNDUP
NATIONAL WEATHER SERVICE CHEYENNE WY
200 PM MDT WED JUL 23 2014

NOTE:  "FAIR" INDICATES FEW OR NO CLOUDS BELOW 12,000 FEET
WITH NO SIGNIFICANT WEATHER AND/OR OBSTRUCTIONS TO VISIBILITY.

WYZ001-232100-
YELLOWSTONE NATIONAL PARK

CITY           SKY/WX    TMP DP  RH WIND       PRES   REMARKS
LK YELLOWSTONE   N/A     79  31  17 W9        30.41S
W YELLOWSTONE  NOT AVBL

$$
WYZ002>013-054>058-071-098>099-232100-
NORTHERN WYOMING

CITY           SKY/WX    TMP DP  RH WIND       PRES   REMARKS
JACKSON        SUNNY     88  28  11 S21       30.28F
CODY           NOT AVBL
GREYBULL       SUNNY     95  49  20 S9        30.04F HX  92
WORLAND        SUNNY     97  43  15 S8        30.06F HX  93
SHERIDAN       SUNNY     92  62  36 S10       30.07F HX  92
BUFFALO        SUNNY     90  58  33 SE15      30.16F
GILLETTE       SUNNY     90  60  36 SE23      30.15F
HULETT         FAIR      86  63  45 MISG      30.19
NEWCASTLE      FAIR      88  54  31 MISG      30.20

$$
WYZ014>020-022>026-101>103-232100-
CENTRAL WYOMING

CITY           SKY/WX    TMP DP  RH WIND       PRES   REMARKS
BIG PINEY      MOSUNNY   85  40  20 W15G23    30.34F
PINEDALE       CLEAR     88  32  13 SW7G17    30.35F
DUBOIS         FAIR      86  30  13 W14G22    30.32F
LANDER         NOT AVBL
RIVERTON       SUNNY     89  47  23 VRB3      30.20F
CASPER         SUNNY     96  46  18 E8        30.18F HX  92
DOUGLAS        SUNNY     89  60  37 SE22G28   30.21F

$$
WYZ021-027>030-104>119-232100-
SOUTHERN WYOMING

CITY           SKY/WX    TMP DP  RH WIND       PRES   REMARKS
EVANSTON       MOSUNNY   89  38  16 SW17G29   30.35F
KEMMERER       PTCLDY    88  32  13 SW25G32   30.37F
FORT BRIDGER   FAIR      92  34  12 SW22G32   30.36F
ROCK SPRINGS   MOSUNNY   91  25   9 SW10G21   30.30F
DIXON          FAIR      94  31  11 S9G16     30.35F
RAWLINS        SUNNY     93  24   8 SW14G30   30.33S
SARATOGA       FAIR      91  27   9 CALM      30.36F
LARAMIE        SUNNY     87  40  19 SE8       30.38F
CHEYENNE       SUNNY     80  61  52 S13G30    30.36F
TORRINGTON     SUNNY     87  63  44 SE17G26   30.21F
PINE BLUFFS    FAIR      81  61  50 S14G24    30.32F

$$


USA.gov is the U.S. government's official web portal to all federal, state and local government web resources and services.